Location: Cazarilh
(42.9578°N, 0.5819°E)
Time: 14:35:30
(UTC+00:00)

STARLINK 1059 - Pass Details

Date: 11 December 2019
Orbit: 496 x 497 km, 53.0° (Epoch: 28 January)

Event Time Altitude Azimuth Distance (km) Brightness Sun altitude
Exits shadow 05:13:58 28° 183° (S) 870 4.7 -21.9°
Drops below altitude 10° 05:16:07 10° 156° (SSE) 1,577 6.4 -21.5°
Sets 05:18:21 0° 148° (SSE) 2,451 7.6 -21.1°
